Location: ???????
(55.8719°N, 38.1523°E)
Time: 19:50:15
(UTC+00:00)

Cosmos 2026 Rocket - Visible Passes

Search period start: 18 July 2024 00:00
Search period end: 28 July 2024 00:00
Orbit: 938 x 1000 km, 82.9° (Epoch: 17 July)

Date Brightness Start Highest point End Pass type
(mag) Time Alt. Az. Time Alt. Az. Time Alt. Az.
18 Jul 6.3 22:27:44 10° N 22:32:24 21° NE 22:37:06 10° ESE visible
19 Jul 4.3 00:12:27 10° N 00:18:44 79° ENE 00:25:05 10° SSE visible
19 Jul 5.8 22:50:59 10° N 22:56:27 30° ENE 23:01:57 10° ESE visible
20 Jul 6.6 21:30:29 10° NNE 21:33:14 13° NE 21:36:01 10° ENE visible
20 Jul 5.2 23:14:21 10° N 23:20:21 44° ENE 23:26:22 10° SE visible
21 Jul 6.4 21:53:18 10° N 21:57:31 18° NE 22:01:45 10° E visible
21 Jul 4.5 23:37:50 10° N 23:44:06 66° ENE 23:50:24 10° SSE visible
22 Jul 6.0 22:16:28 10° N 22:21:38 26° ENE 22:26:50 10° ESE visible
23 Jul 4.1 00:01:24 10° NNW 00:07:42 85° W 00:14:04 10° S visible
23 Jul 6.7 20:56:31 10° NNE 20:58:16 11° NE 20:59:59 10° NE visible
23 Jul 5.4 22:39:48 10° N 22:45:36 37° ENE 22:51:27 10° SE visible
24 Jul 4.2 00:25:03 10° NNW 00:31:11 57° W 00:37:21 10° S visible
24 Jul 6.4 21:18:55 10° N 21:22:36 16° NE 21:26:18 10° E visible
24 Jul 4.7 23:03:14 10° N 23:09:26 55° ENE 23:15:39 10° SSE visible
25 Jul 6.1 21:41:58 10° N 21:46:47 22° NE 21:51:38 10° ESE visible
25 Jul 4.2 23:26:45 10° N 23:33:05 81° ENE 23:39:29 10° SSE visible
26 Jul 5.6 22:05:15 10° N 22:10:50 32° ENE 22:16:26 10° ESE visible
26 Jul 4.1 23:50:21 10° NNW 23:56:38 68° W 00:02:56 10° S visible
27 Jul 6.5 20:44:38 10° NNE 20:47:39 13° NE 20:50:40 10° ENE visible
27 Jul 5.0 22:28:39 10° N 22:34:43 46° ENE 22:40:49 10° SE visible
